Monterey, CA

9:20 PM PDT on July 26, 2017 (GMT -0700)
Monterey Peninsula

Weather History for KMRY - August, 2013

Change the Weather History Date:

Tuesday, August 13, 2013

  Actual Average Record
Temperature  
Mean Temperature 62 °F 62 °F  
Max Temperature 69 °F 69 °F 75 °F (2014)
Min Temperature 54 °F 54 °F 50 °F (2008)
Degree Days  
Heating Degree Days 3    
Month to date heating degree days 53  
Since 1 June heating degree days 294  
Since 1 July heating degree days 166  
Cooling Degree Days 0    
Month to date cooling degree days 0  
Year to date cooling degree days 21  
Since 1 June cooling degree days 14  
Growing Degree Days 10 (Base 50)    
Moisture  
Dew Point 54 °F    
Average Humidity 82    
Maximum Humidity 100    
Minimum Humidity 63    
Precipitation  
Precipitation 0.00 in - 0.01 in (2010)
Month to date precipitation 0.08  
Year to date precipitation 3.23  
Since 1 July precipitation 0.08  
Sea Level Pressure  
Sea Level Pressure 30.02 in    
Wind  
Wind Speed 5 mph (West)    
Max Wind Speed 14 mph    
Max Gust Speed 17 mph    
Visibility 7 miles    
Events      
T = Trace of Precipitation, MM = Missing Value Source: NWS Daily Summary

Daily Weather History Graph

Daily Weather History Graph

Search for Another Location

Airport or City:

Trip Planner

Search our weather history database for the weather conditions in past years. The results will help you decide how hot, cold, wet, or windy it might be!

Date:

Astronomy

Aug. 13, 2013 Rise Set
Actual Time 6:23 AM PDT 8:00 PM PDT
Civil Twilight 5:55 AM PDT 8:27 PM PDT
Nautical Twilight 5:22 AM PDT 9:00 PM PDT
Astronomical Twilight 4:47 AM PDT 9:35 PM PDT
Moon 1:11 PM PDT (8/13) 11:52 PM PDT (8/13)
Length of Visible Light 14h 31m
Length of Day
13h 36m
Waxing Crescent, 43% of the Moon is Illuminated
Aug 13
Waxing Crescent
Aug 14
First Quarter
Aug 20
Full
Aug 28
Last Quarter
Sep 5
New

Hourly Weather History & Observations

Time (PDT) Temp. Dew Point Humidity Pressure Visibility Wind Dir Wind Speed Gust Speed Precip Events Conditions
12:54 AM 55.0 °F 53.1 °F 93% 30.04 in 8.0 mi Calm Calm - N/A   Overcast
1:54 AM 54.0 °F 53.1 °F 97% 30.03 in 7.0 mi Calm Calm - N/A   Overcast
2:52 AM 53.6 °F 53.6 °F 100% 30.00 in 2.5 mi Calm Calm - N/A   Mist
2:54 AM 54.0 °F 53.1 °F 97% 30.04 in 2.5 mi Calm Calm - N/A   Mist
3:08 AM 53.6 °F 53.6 °F 100% 30.00 in 1.2 mi Calm Calm - N/A   Mist
3:39 AM 55.4 °F 53.6 °F 94% 30.00 in 0.8 mi WSW 4.6 mph - N/A   Mist
3:54 AM 55.0 °F 54.0 °F 96% 30.03 in 0.8 mi SSW 3.5 mph - N/A   Mist
4:54 AM 55.0 °F 54.0 °F 96% 30.03 in 0.8 mi Calm Calm - N/A   Mist
5:40 AM 55.4 °F 53.6 °F 94% 29.99 in 2.0 mi Calm Calm - N/A   Mist
5:54 AM 54.0 °F 54.0 °F 100% 30.03 in 3.0 mi Calm Calm - N/A   Mist
6:54 AM 54.0 °F 53.1 °F 97% 30.03 in 6.0 mi Calm Calm - N/A   Mist
7:54 AM 54.0 °F 53.1 °F 97% 30.05 in 6.0 mi Calm Calm - N/A   Overcast
8:01 AM 53.6 °F 53.6 °F 100% 30.01 in 4.0 mi Calm Calm - N/A   Mist
8:54 AM 55.9 °F 54.0 °F 93% 30.05 in 6.0 mi Calm Calm - N/A   Mist
9:54 AM 61.0 °F 55.0 °F 81% 30.04 in 10.0 mi Variable 4.6 mph - N/A   Scattered Clouds
10:54 AM 60.1 °F 55.0 °F 83% 30.04 in 10.0 mi Variable 4.6 mph - N/A   Unknown
11:42 AM 59.0 °F 53.6 °F 82% 30.00 in 10.0 mi NW 6.9 mph - N/A   Scattered Clouds
11:54 AM 60.1 °F 54.0 °F 80% 30.04 in 10.0 mi NW 5.8 mph - N/A   Scattered Clouds
12:03 PM 60.8 °F 53.6 °F 77% 30.01 in 10.0 mi NW 5.8 mph - N/A   Mostly Cloudy
12:45 PM 60.8 °F 53.6 °F 77% 30.00 in 10.0 mi NW 8.1 mph - N/A   Scattered Clouds
12:54 PM 61.0 °F 54.0 °F 78% 30.04 in 10.0 mi NW 6.9 mph - N/A   Scattered Clouds
1:54 PM 63.0 °F 55.0 °F 75% 30.03 in 10.0 mi NW 8.1 mph - N/A   Clear
2:54 PM 68.0 °F 55.9 °F 65% 30.01 in 10.0 mi North 5.8 mph - N/A   Clear
3:54 PM 66.9 °F 55.0 °F 66% 30.01 in 10.0 mi WNW 8.1 mph - N/A   Clear
4:54 PM 63.0 °F 55.0 °F 75% 30.01 in 10.0 mi WNW 10.4 mph - N/A   Clear
5:54 PM 62.1 °F 54.0 °F 75% 30.02 in 10.0 mi West 6.9 mph - N/A   Clear
6:54 PM 62.1 °F 54.0 °F 75% 30.01 in 10.0 mi WSW 5.8 mph - N/A   Clear
7:54 PM 61.0 °F 53.1 °F 75% 30.02 in 10.0 mi SSW 8.1 mph - N/A   Clear
8:54 PM 59.0 °F 54.0 °F 83% 30.02 in 10.0 mi South 6.9 mph - N/A   Partly Cloudy
9:54 PM 59.0 °F 54.0 °F 83% 30.03 in 10.0 mi SW 6.9 mph - N/A   Clear
10:54 PM 57.9 °F 53.1 °F 84% 30.03 in 10.0 mi WSW 5.8 mph - N/A   Clear
11:54 PM 57.9 °F 53.1 °F 84% 30.03 in 10.0 mi South 3.5 mph - N/A   Clear